Content
SEND FEEDBACK

Daily
Averages
Monthly
Summary
Belize

BELIZE CITY, BELIZE


Home > Central America > Belize
Elevation: 16 feet     Latitude: 17 32N     Longitude: 088 18W

WEATHER
 
SELECT A DAY
Number of Records: 114,220;   Date Range: 7/1/96 - 10/29/14
 
SHARE

PRINT THIS DATA

[ ← Previous Day ]
WEATHER ALMANAC - JANUARY 23, 2013
[ Next Day → ]
[ °C ]   °F
Weather ElementAverageHighLow
Temperature69.1 °F73.4 °F (9:00 am) (2:00 pm)
Dewpoint67.3 °F71.6 °F (9:00 am) (7:00 pm)
Humidity93.5 %100 % (8:25 am)87 % (9:00 pm)
Barometer30.14 in30.19 in (9:00 am)30.07 in (3:00 am)
Wind Speed6.1 mph10.4 mph (3:00 pm)
Weather ElementAverage
Visibility5.1 mi
Wind DirectionSSE (156.9 °)

Weather ElementTotal
Precipitation---
Heating Degree Days28.3 (Base 65)
Averaged from 27 records on January 23, 2013
WEATHER CONDITIONS BREAKOUT
WIND DIRECTION BREAKOUT
WEATHER BY HOUR - JANUARY 23, 2013
[ °C ]   °F
Local TimeTemperatureDewpointHumidityBarometerVisibilityWind DirectionWind SpeedGust SpeedPrecipitationEventsConditions
3:00 AM72.0 °F70.0 °F92 %30.07 in12.0 miCalmPartly Cloudy
5:00 AM71.6 °F69.8 °F94 %30.09 in6.2 miNW (320°)5.8 mphMostly Cloudy
6:00 AM71.0 °F70.0 °F95 %30.13 in5.0 miNNW (340°)5.8 mphRainLight Rain Showers
6:00 AM71.6 °F69.8 °F94 %30.12 in5.0 miNNW (340°)5.8 mphRainLight Rain Showers
7:00 AM71.6 °F69.8 °F94 %30.13 in6.2 miNorth (360°)5.8 mphMostly Cloudy
8:00 AM71.6 °F69.8 °F94 %30.16 in6.2 miNNE (20°)5.8 mphRainLight Rain Showers
8:25 AM69.8 °F69.8 °F100 %30.17 in3.1 miNNE (30°)4.6 mphRainRain
9:00 AM72.0 °F71.0 °F97 %30.19 in11.0 miENE (70°)5.8 mphRainLight Rain
9:00 AM73.4 °F71.6 °F94 %30.18 in6.2 miENE (70°)5.8 mphRainLight Rain
10:00 AM73.4 °F69.8 °F88 %30.19 in3.1 miEast (80°)3.5 mphRainLight Rain
11:00 AM73.4 °F69.8 °F88 %30.18 in1.9 miEast (80°)3.5 mphRainLight Rain
11:25 AM71.6 °F69.8 °F94 %30.18 in1.2 miNE (50°)3.5 mphRainRain
12:00 PM71.6 °F69.8 °F94 %30.16 in1.2 miNorth (350°)4.6 mphRainRain
12:00 PM71.0 °F71.0 °F98 %30.17 in1.0 miNorth (350°)4.6 mphRainRain
12:20 PM71.6 °F69.8 °F94 %30.16 in1.9 miNorth (350°)5.8 mphRainLight Rain
12:35 PM71.6 °F69.8 °F94 %30.15 in1.2 miNorth (350°)4.6 mphRainRain
1:00 PM71.6 °F71.6 °F100 %30.13 in1.9 miNNE (20°)4.6 mphRainLight Rain
1:15 PM71.6 °F71.6 °F100 %30.13 in3.1 miNE (50°)4.6 mphRainLight Rain
2:00 PM0.0 °F0.0 °F30.12 in2.5 miENE (60°)6.9 mphRainLight Rain
2:30 PM71.6 °F69.8 °F94 %30.10 in3.7 miNorth (10°)9.2 mphRainLight Rain
3:00 PM71.6 °F69.8 °F94 %30.10 in6.2 miNNE (20°)10.4 mphMostly Cloudy
3:25 PM71.6 °F69.8 °F94 %30.10 in6.2 miNorth (360°)9.2 mphMostly Cloudy
4:00 PM73.4 °F69.8 °F88 %30.11 in6.2 miNorth (10°)9.2 mphMostly Cloudy
5:00 PM71.6 °F69.8 °F94 %30.13 in6.2 miNorth (360°)8.1 mphMostly Cloudy
6:00 PM71.0 °F68.0 °F89 %30.14 in12.0 miNorth (10°)9.2 mphRainLight Rain Showers
6:00 PM71.6 °F68.0 °F88 %30.13 in6.2 miNorth (10°)9.2 mphRainLight Rain Showers
9:00 PM71.0 °F68.0 °F87 %30.17 in12.0 miNorth (10°)8.1 mphPartly Cloudy
Hourly data recorded from MZBZ, located miles away from Belize City, Belize







STORIES FROM OUR PARTNERS